Weather History for Cecil Field, FL

Change the Weather History Date:

Thursday, February 21, 2013

  Actual Average (KJAX) Record (KJAX)
Temperature  
Mean Temperature 52 °F 58 °F  
Max Temperature 71 °F 69 °F 85 °F (1997)
Min Temperature 33 °F 46 °F 25 °F (1958)
Degree Days  
Heating Degree Days 13 8  
Month to date heating degree days 203  
Since 1 July heating degree days 1079  
Cooling Degree Days 0 1  
Month to date cooling degree days 16  
Year to date cooling degree days 27  
Growing Degree Days 2 (Base 50)    
Moisture  
Dew Point 42 °F    
Average Humidity 82    
Maximum Humidity 100    
Minimum Humidity 35    
Precipitation  
Precipitation 0.00 in 0.12 in 1.77 in (1904)
Month to date precipitation 2.33  
Year to date precipitation 5.63  
Snow  
Snow 0.00 in 0.00 in 0.00 in (2002)
Month to date snowfall 0.0  
Since 1 July snowfall T  
Snow Depth -    
Sea Level Pressure  
Sea Level Pressure 30.10 in    
Wind  
Wind Speed 1 mph (ENE)    
Max Wind Speed 8 mph    
Max Gust Speed -    
Visibility 10 miles    
Events      
T = Trace of Precipitation, MM = Missing Value Source: NWS Daily Summary

Daily Weather History Graph

Daily Weather History Graph

Search for Another Location

Airport:

Trip Planner

Search our weather history database for the weather conditions in past years. The results will help you decide how hot, cold, wet, or windy it might be!

Date:

Astronomy

Feb. 21, 2013 Rise Set
Actual Time 7:01 AM EST 6:20 PM EST
Civil Twilight 6:37 AM EST 6:45 PM EST
Nautical Twilight 6:09 AM EST 7:13 PM EST
Astronomical Twilight 5:41 AM EST 7:40 PM EST
Moon 2:45 PM EST (2/21) 3:54 AM EST (2/21)
Length of Visible Light 12h 07m
Length of Day
11h 19m
Waxing Gibbous, 83% of the Moon is Illuminated
Feb 21
Waxing Gibbous
Feb 25
Full
Mar 4
Last Quarter
Mar 11
New
Mar 19
First Quarter

Hourly Weather History & Observations

Time (EST) Temp. Windchill Dew Point Humidity Pressure Visibility Wind Dir Wind Speed Gust Speed Precip Events Conditions
12:15 AM 39.2 °F - 37.4 °F 93% 30.13 in 10.0 mi Calm Calm - N/A   Clear
12:35 AM 39.2 °F - 37.4 °F 93% 30.12 in 10.0 mi Calm Calm - N/A   Clear
12:55 AM 39.2 °F - 37.4 °F 93% 30.12 in 10.0 mi Calm Calm - N/A   Clear
1:15 AM 37.4 °F - 37.4 °F 100% 30.12 in 10.0 mi Calm Calm - N/A   Clear
1:35 AM 37.4 °F - 37.4 °F 100% 30.11 in 10.0 mi Calm Calm - N/A   Clear
1:55 AM 37.4 °F - 37.4 °F 100% 30.11 in 8.0 mi Calm Calm - N/A   Clear
2:15 AM 39.2 °F - 37.4 °F 93% 30.11 in 10.0 mi Calm Calm - N/A   Clear
2:35 AM 37.4 °F - 37.4 °F 100% 30.11 in 9.0 mi Calm Calm - N/A   Clear
2:55 AM 39.2 °F - 37.4 °F 93% 30.11 in 10.0 mi Calm Calm - N/A   Clear
3:15 AM 39.2 °F - 37.4 °F 93% 30.10 in 10.0 mi Calm Calm - N/A   Clear
3:35 AM 37.4 °F - 37.4 °F 100% 30.10 in 10.0 mi Calm Calm - N/A   Clear
3:55 AM 37.4 °F - 35.6 °F 93% 30.09 in 10.0 mi Calm Calm - N/A   Clear
4:15 AM 37.4 °F - 37.4 °F 100% 30.10 in 10.0 mi Calm Calm - N/A   Clear
4:35 AM 37.4 °F - 37.4 °F 100% 30.11 in 10.0 mi Calm Calm - N/A   Clear
4:55 AM 35.6 °F - 35.6 °F 100% 30.11 in 9.0 mi Calm Calm - N/A   Clear
5:15 AM 35.6 °F - 35.6 °F 100% 30.10 in 7.0 mi Calm Calm - N/A   Clear
5:35 AM 35.6 °F - 35.6 °F 100% 30.10 in 9.0 mi Calm Calm - N/A   Clear
5:55 AM 35.6 °F - 35.6 °F 100% 30.11 in 9.0 mi Calm Calm - N/A   Clear
6:15 AM 35.6 °F - 33.8 °F 93% 30.11 in 9.0 mi Calm Calm - N/A   Clear
6:35 AM 33.8 °F - 33.8 °F 100% 30.11 in 5.0 mi Calm Calm - N/A   Clear
6:50 AM 33.8 °F - 33.8 °F 100% 30.11 in 10.0 mi Calm Calm - N/A   Clear
7:50 AM 39.2 °F 35.0 °F 39.2 °F 100% 30.15 in 10.0 mi North 5.8 mph - N/A   Clear
8:50 AM 51.8 °F - 39.2 °F 62% 30.16 in 10.0 mi North 6.9 mph - N/A   Clear
9:50 AM 57.2 °F - 35.6 °F 44% 30.17 in 10.0 mi Calm Calm - N/A   Clear
10:50 AM 62.6 °F - 35.6 °F 37% 30.16 in 10.0 mi Variable 5.8 mph - N/A   Clear
11:50 AM 66.2 °F - 37.4 °F 35% 30.15 in 10.0 mi Variable 5.8 mph - N/A   Clear
12:50 PM 68.0 °F - 44.6 °F 43% 30.13 in 10.0 mi Variable 5.8 mph - N/A   Clear
1:50 PM 71.6 °F - 48.2 °F 43% 30.00 in 10.0 mi Calm Calm - N/A   Clear
2:50 PM 71.6 °F - 50.0 °F 46% 30.06 in 10.0 mi East 8.1 mph - N/A   Clear
3:50 PM 71.6 °F - 53.6 °F 53% 30.05 in 10.0 mi East 8.1 mph - N/A   Clear
5:50 PM 64.4 °F - 50.0 °F 59% 30.05 in 10.0 mi East 5.8 mph - N/A   Clear
6:50 PM 62.6 °F - 50.0 °F 63% 30.06 in 10.0 mi East 5.8 mph - N/A   Clear
7:50 PM 59.0 °F - 50.0 °F 72% 30.07 in 10.0 mi East 4.6 mph - N/A   Clear
8:15 PM 59.0 °F - 50.0 °F 72% 30.07 in 10.0 mi Calm Calm - N/A   Scattered Clouds
8:35 PM 57.2 °F - 50.0 °F 77% 30.07 in 10.0 mi Calm Calm - N/A   Mostly Cloudy
8:55 PM 57.2 °F - 50.0 °F 77% 30.07 in 10.0 mi Calm Calm - N/A   Scattered Clouds
9:15 PM 57.2 °F - 50.0 °F 77% 30.07 in 10.0 mi Calm Calm - N/A   Partly Cloudy
9:35 PM 55.4 °F - 50.0 °F 82% 30.07 in 10.0 mi Calm Calm - N/A   Mostly Cloudy
9:55 PM 55.4 °F - 50.0 °F 82% 30.08 in 10.0 mi Calm Calm - N/A   Scattered Clouds
10:15 PM 55.4 °F - 50.0 °F 82% 30.08 in 10.0 mi Calm Calm - N/A   Partly Cloudy
10:35 PM 55.4 °F - 50.0 °F 82% 30.08 in 10.0 mi Calm Calm - N/A   Mostly Cloudy
10:55 PM 55.4 °F - 51.8 °F 88% 30.07 in 10.0 mi Calm Calm - N/A   Overcast
11:15 PM 55.4 °F - 51.8 °F 88% 30.08 in 10.0 mi Calm Calm - N/A   Mostly Cloudy
11:55 PM 55.4 °F - 53.6 °F 94% 30.07 in 10.0 mi Calm Calm - N/A   Mostly Cloudy